Simultaneous Nadir Overpasses (SNOs) Predictions

Prediction of SNOs between TERRA and METOP-C Satellite Orbit:

Table of predicted SNOs for the next 14.0 days since TLE Epoch: 5/2/2020
Index Date (TERRA) Time (TERRA) Lat,Lon (TERRA) SZA (TERRA ) Date (METOP-C) Time (METOP-C) Lat,Lon (METOP-C) SZA (METOP-C ) Distance(km) Time Diff (sec)
1 05/03/2020 12:26:51 -81.31,-139.30 111.61 05/03/2020 12:26:12 -81.30,-139.23 111.62 1.31 39
2 05/03/2020 13:16:17 81.32, 28.52 68.41 05/03/2020 13:16:52 81.31, 28.53 68.43 0.80 35
3 05/06/2020 08:01:09 -81.29, -73.15 112.44 05/06/2020 08:00:36 -81.30, -73.18 112.45 0.94 33
4 05/06/2020 08:50:35 81.30, 94.66 67.58 05/06/2020 08:51:16 81.30, 94.51 67.59 2.58 41
5 05/09/2020 03:35:27 -81.30, -6.59 113.17 05/09/2020 03:34:58 -81.30, -6.75 113.21 2.69 29
6 05/09/2020 04:24:53 81.31, 161.20 66.85 05/09/2020 04:25:37 81.31, 161.26 66.88 1.03 44
7 05/11/2020 23:09:48 -81.31, 59.98 113.87 05/11/2020 23:09:20 -81.30, 60.05 113.87 1.27 28
8 05/11/2020 23:59:14 81.31,-132.25 66.15 05/12/2020 00:00:00 81.31,-132.40 66.15 2.67 46
9 05/14/2020 18:44:12 -81.30, 126.19 114.57 05/14/2020 18:43:44 -81.30, 126.07 114.60 2.16 28




NCC Satellite Simultaneous Nadir Overpasses (SNOs) Prediction Service
